This is the latest recevied weather packets stored in our database for station/object KE0LFX. If no packets are shown the sender has not sent any weather packets the latest 10 day(s).
| Time | Temp. | Humidity | Pressure | Rain* | Wind** | Luminosity | Snow |
|---|---|---|---|---|---|---|---|
| 1778027575 | 13.33° C | 39% | 1013.9 hPa | 0 mm | - | 13 W/m² | - |
| 1778027272 | 13.33° C | 39% | 1013.8 hPa | 0 mm | - | 16 W/m² | - |
| 1778026968 | 13.33° C | 39% | 1013.6 hPa | 0 mm | - | 18 W/m² | - |
| 1778026664 | 13.89° C | 38% | 1013.5 hPa | 0 mm | - | 22 W/m² | - |
| 1778026362 | 13.89° C | 38% | 1013.4 hPa | 0 mm | - | 30 W/m² | - |
| 1778026058 | 13.89° C | 37% | 1013.6 hPa | 0 mm | - | 46 W/m² | - |
| 1778025756 | 14.44° C | 37% | 1013.4 hPa | 0 mm | - | 58 W/m² | - |
| 1778025452 | 14.44° C | 37% | 1013.4 hPa | 0 mm | - | 75 W/m² | - |
| 1778025150 | 14.44° C | 36% | 1013.4 hPa | 0 mm | - | 80 W/m² | - |
| 1778024847 | 14.44° C | 36% | 1013.5 hPa | 0 mm | - | 81 W/m² | - |
| 1778024545 | 14.44° C | 37% | 1013.5 hPa | 0 mm | - | 84 W/m² | - |
| 1778024241 | 14.44° C | 36% | 1013.6 hPa | 0 mm | - | 75 W/m² | - |
| 1778023939 | 14.44° C | 36% | 1013.5 hPa | 0 mm | - | 75 W/m² | - |
| 1778023636 | 14.44° C | 37% | 1013.3 hPa | 0 mm | - | 92 W/m² | - |
| 1778023333 | 14.44° C | 36% | 1013.2 hPa | 0 mm | - | 108 W/m² | - |
| 1778023030 | 14.44° C | 36% | 1013.2 hPa | 0 mm | - | 106 W/m² | - |
| 1778022729 | 14.44° C | 37% | 1013.1 hPa | 0 mm | - | 113 W/m² | - |
| 1778022427 | 14.44° C | 36% | 1013.1 hPa | 0 mm | - | 110 W/m² | - |
| 1778022123 | 15° C | 36% | 1013 hPa | 0 mm | - | 92 W/m² | - |
| 1778021819 | 15° C | 36% | 1013.1 hPa | 0 mm | - | 91 W/m² | - |
| 1778021516 | 15° C | 35% | 1013 hPa | 0 mm | - | 91 W/m² | - |
| 1778021211 | 15° C | 37% | 1013.1 hPa | 0 mm | - | 93 W/m² | - |
| 1778020910 | 15° C | 37% | 1013.1 hPa | 0 mm | - | 103 W/m² | - |
| 1778020607 | 15° C | 37% | 1013.2 hPa | 0 mm | - | 127 W/m² | - |
| 1778020303 | 15° C | 35% | 1013 hPa | 0 mm | - | 147 W/m² | - |
* Rain latest hour (hover to see other rain measurements)
** Current wind speed in m/s (hover to see current wind gust speed)